Location: ??
(35.4627°N, 139.3695°E)
Time: 05:46:27
(UTC+00:00)

Cosmos 2084 - Pass Details

Date: 25 November 2020
Orbit: 558 x 624 km, 62.8° (Epoch: 20 January)

Event Time Altitude Azimuth Distance (km) Brightness Sun altitude
Exits shadow 20:30:24 13° 317° (NW) 1,785 5.4 -11.9°
Maximum altitude 20:34:16 54° 242° (WSW) 759 3.8 -11.1°
Drops below altitude 10° 20:38:40 10° 165° (SSE) 1,984 6.6 -10.3°
Sets 20:40:58 0° 161° (SSE) 2,885 7.6 -9.8°
